Location: Quedlinburg
(51.7921°N, 11.1414°E)
Time: 14:53:36
(UTC+02:00)

METEOR M2 - Pass Details

Date: 23 March 2026
Orbit: 817 x 824 km, 98.5° (Epoch: 14 April)

Event Time Altitude Azimuth Distance (km) Brightness Sun altitude
Rises 02:53:28 0° 31° (NNE) 3,373 ? -28.4°
Reaches altitude 10° 02:57:54 10° 65° (ENE) 2,432 ? -27.9°
Maximum altitude 02:59:28 11° 82° (E) 2,344 ? -27.7°
Drops below altitude 10° 03:01:02 10° 100° (E) 2,426 ? -27.5°
Sets 03:05:25 0° 134° (SE) 3,349 ? -27.0°
